Location: Unspecified
(45.1519°N, 0.0000°E)
Time: 14:08:17
(UTC+00:00)

Meteor 1-18 Rocket - Visible Passes

Search period start: 04 April 2026 00:00
Search period end: 14 April 2026 00:00
Orbit: 835 x 908 km, 81.2° (Epoch: 29 March)

Date Brightness Start Highest point End Pass type
(mag) Time Alt. Az. Time Alt. Az. Time Alt. Az.
4 Apr 7.5 04:23:41 10° ESE 04:25:48 12° E 04:27:52 10° ENE visible
5 Apr 7.4 04:17:39 10° ESE 04:19:58 13° E 04:22:17 10° ENE visible
6 Apr 7.3 04:11:38 10° ESE 04:14:09 13° E 04:16:39 10° NE visible
7 Apr 7.3 04:05:38 10° ESE 04:08:19 14° E 04:11:00 10° NE visible
8 Apr 7.2 03:59:39 10° ESE 04:02:30 14° E 04:05:20 10° NE visible
9 Apr 7.1 03:53:40 10° ESE 03:56:41 15° E 03:59:40 10° NE visible
10 Apr 7.1 03:47:43 10° ESE 03:50:51 15° E 03:53:59 10° NE visible
11 Apr 7.0 03:41:45 10° ESE 03:45:02 16° E 03:48:17 10° NE visible
12 Apr 7.0 03:35:49 10° ESE 03:39:12 17° E 03:42:35 10° NE visible
13 Apr 6.9 03:29:52 10° ESE 03:33:23 17° E 03:36:53 10° NE visible
